This is the latest recevied weather packets stored in our database for station/object KI4FRU. If no packets are shown the sender has not sent any weather packets the latest 10 day(s).
| Time | Temp. | Humidity | Pressure | Rain* | Wind** | Luminosity | Snow |
|---|---|---|---|---|---|---|---|
| 1777809562 | 4.44° C | 99% | 1058.9 hPa | 0 mm | - | 22 W/m² | - |
| 1777809260 | 4.44° C | 99% | 1058.8 hPa | 0 mm | - | 20 W/m² | - |
| 1777808957 | 3.89° C | 99% | 1059 hPa | 0 mm | - | 19 W/m² | - |
| 1777808654 | 3.33° C | 99% | 1058.9 hPa | 0 mm | - | 18 W/m² | - |
| 1777808351 | 3.33° C | 99% | 1058.6 hPa | 0 mm | - | 17 W/m² | - |
| 1777808050 | 2.78° C | 99% | 1058.7 hPa | 0 mm | - | 16 W/m² | - |
| 1777807746 | 3.33° C | 99% | 1058.7 hPa | 0 mm | - | 15 W/m² | - |
| 1777807439 | 3.33° C | 99% | 1058.5 hPa | 0 mm | - | 14 W/m² | - |
| 1777807134 | 2.78° C | 99% | 1058.4 hPa | 0 mm | - | 13 W/m² | - |
| 1777806832 | 2.78° C | 99% | 1058.6 hPa | 0 mm | - | 12 W/m² | - |
| 1777806527 | 2.78° C | 99% | 1058.5 hPa | 0 mm | - | 11 W/m² | - |
| 1777806223 | 2.78° C | 99% | 1058.4 hPa | 0 mm | - | 10 W/m² | - |
| 1777805914 | 2.78° C | 99% | 1058.4 hPa | 0 mm | - | 9 W/m² | - |
| 1777805611 | 2.22° C | 99% | 1058.3 hPa | 0 mm | - | 7 W/m² | - |
| 1777805309 | 2.22° C | 99% | 1058.2 hPa | 0 mm | - | 6 W/m² | - |
| 1777805007 | 2.22° C | 99% | 1057.9 hPa | 0 mm | - | 4 W/m² | - |
| 1777804704 | 2.22° C | 99% | 1057.9 hPa | 0 mm | - | 3 W/m² | - |
| 1777804402 | 2.22° C | 99% | 1057.8 hPa | 0 mm | - | 2 W/m² | - |
| 1777804099 | 2.22° C | 99% | 1058.1 hPa | 0 mm | - | 1 W/m² | - |
| 1777803796 | 2.22° C | 99% | 1057.8 hPa | 0 mm | - | 0 W/m² | - |
| 1777803491 | 2.22° C | 99% | 1057.6 hPa | 0 mm | - | 0 W/m² | - |
| 1777803189 | 2.22° C | 99% | 1057.8 hPa | 0 mm | - | 0 W/m² | - |
| 1777802886 | 2.22° C | 99% | 1057.7 hPa | 0 mm | - | 0 W/m² | - |
| 1777802584 | 2.78° C | 99% | 1057.5 hPa | 0 mm | - | 0 W/m² | - |
| 1777802281 | 2.78° C | 99% | 1057.5 hPa | 0 mm | - | 0 W/m² | - |
* Rain latest hour (hover to see other rain measurements)
** Current wind speed in m/s (hover to see current wind gust speed)